This is the latest recevied weather packets stored in our database for station/object NC4M. If no packets are shown the sender has not sent any weather packets the latest 10 day(s).
| Time | Temp. | Humidity | Pressure | Rain* | Wind** | Luminosity | Snow |
|---|---|---|---|---|---|---|---|
| 1788118874 | 35.56° C | 38% | 1016.3 hPa | 0 mm | - | 143 W/m² | - |
| 1788118574 | 35.56° C | 38% | 1016.3 hPa | 0 mm | - | 90 W/m² | - |
| 1788118269 | 35.56° C | 34% | 1016.3 hPa | 0 mm | - | 89 W/m² | - |
| 1788117965 | 35.56° C | 38% | 1016.4 hPa | 0 mm | - | 221 W/m² | - |
| 1788117665 | 35.56° C | 37% | 1016.4 hPa | 0 mm | - | 107 W/m² | - |
| 1788117360 | 35° C | 39% | 1016.6 hPa | 0 mm | - | 94 W/m² | - |
| 1788117055 | 35.56° C | 39% | 1016.7 hPa | 0 mm | - | 99 W/m² | - |
| 1788116751 | 35° C | 36% | 1016.5 hPa | 0 mm | - | 103 W/m² | - |
| 1788116447 | 35.56° C | 37% | 1016.4 hPa | 0 mm | - | 433 W/m² | - |
| 1788116145 | 35.56° C | 38% | 1016.6 hPa | 0 mm | - | 144 W/m² | - |
| 1788115841 | 35.56° C | 41% | 1016.8 hPa | 0 mm | - | 111 W/m² | - |
| 1788115540 | 35.56° C | 36% | 1016.8 hPa | 0 mm | - | 138 W/m² | - |
| 1788115234 | 35.56° C | 40% | 1016.9 hPa | 0 mm | - | 107 W/m² | - |
| 1788114929 | 36.11° C | 35% | 1016.8 hPa | 0 mm | - | 143 W/m² | - |
| 1788114625 | 35.56° C | 38% | 1017 hPa | 0 mm | - | 305 W/m² | - |
| 1788114320 | 35.56° C | 38% | 1017 hPa | 0 mm | - | 417 W/m² | - |
| 1788114016 | 35.56° C | 36% | 1017 hPa | 0 mm | - | 573 W/m² | - |
| 1788113712 | 35.56° C | 38% | 1017.1 hPa | 0 mm | - | 854 W/m² | - |
| 1788113411 | 35.56° C | 38% | 1017.1 hPa | 0 mm | - | 855 W/m² | - |
| 1788113106 | 35.56° C | 37% | 1017.1 hPa | 0 mm | - | 849 W/m² | - |
| 1788112805 | 35.56° C | 37% | 1017.1 hPa | 0 mm | - | 847 W/m² | - |
| 1788112505 | 35° C | 41% | 1016.9 hPa | 0 mm | - | 848 W/m² | - |
| 1788112200 | 35° C | 42% | 1017.3 hPa | 0 mm | - | 847 W/m² | - |
| 1788111895 | 35° C | 39% | 1017.3 hPa | 0 mm | - | 839 W/m² | - |
| 1788111595 | 35° C | 42% | 1017.5 hPa | 0 mm | - | 837 W/m² | - |
* Rain latest hour (hover to see other rain measurements)
** Current wind speed in m/s (hover to see current wind gust speed)